User: anonymous   Login
Location: Fort Wayne
(41.1310°N, 85.1290°W)
Time: 14:53:50
(UTC-04:00)
Language:

IDEFIX/ARIANE 42P - Orbit

View from above orbital plane
View from above orbital plane
View from above satellite
View from above satellite

Ground track
Ground track

The orbit data is extracted from the following two-line orbital elements,

1 27422U 02021B   14298.11781560  .00000346  00000-0  15270-3 0  6274
2 27422 098.2859 334.3367 0012027 214.0316 206.9459 14.29069331648694
Epoch (UTC): 25 October 2014 02:49:39
Eccentricity: 0.0012027
inclination: 98.2859°
perigee height: 786 km
apogee height: 803 km
right ascension of ascending node: 334.3367°
argument of perigee: 214.0316°
revolutions per day: 14.29069331
mean anomaly at epoch: 206.9459°
orbit number at epoch: 64869

The dashed part of the orbit path shows where the satellite is in the earth's shadow,  

DLR